Hauptseite
METAR-TAF:

METAR-TAF

Flughäfen :

Bohrplattform

K13-a, Niederlande

Breite: 53-13-04N, Länge: 3-13-13E, Höhe: 31 m

Beobachtung

Neuester Wetterbericht von vor 44 Minuten, um 10:25 UTC
Wind 11 kt aus Nord
Temperatur 13°C
Luftfeuchtigkeit 58%
Luftdruck 1013 hPa

METAR: EHJR 231025Z AUTO 36011KT //// // ///////// 13/05 Q1013 RE// W17/H12

Zeit: 13:09 (11:09 UTC)


TAF: fehlend

Wetterbeobachtungen und Prognosen von mehr als 4000 Flughäfen (METAR und TAF Bericht).

Die verfügbaren Stationen werden durch gelbe und rote Markierungen auf der Karte dargestellt.

Führen Sie die Maus auf sie, um den Namen der Station zu sehen.

Darauf klicken, um die Beobachtung von Wetterbeobachtungen und Prognosen zu sehen.

Um die Karte zu ändern : klicken Sie auf den grünen Tasten mit einem schwarzen Kreuz Zum Vergrößern, auf den grünen Button mit einem Gedankenstrich zu verkleinern, oder auf die grünen Pfeile für benachbarte Karten.


METAR-TAF: